Port Huron, MI

3:49 AM EDT on August 23, 2019 (GMT -0400)
Saint Clair County International

Weather History for KPHN - June, 2019

Change the Weather History Date:

Tuesday, June 11, 2019

  Actual Average (KMTC) Record (KMTC)
Temperature  
Mean Temperature 60 °F -  
Max Temperature 75 °F 76 °F 92 °F (2016)
Min Temperature 44 °F 54 °F 37 °F (1964)
Degree Days  
Heating Degree Days 6    
Growing Degree Days 10 (Base 50)    
Moisture  
Dew Point 44 °F    
Average Humidity 56    
Maximum Humidity 87    
Minimum Humidity 29    
Precipitation  
Precipitation 0.00 in - - ()
Sea Level Pressure  
Sea Level Pressure 30.13 in    
Wind  
Wind Speed 2 mph (NW)    
Max Wind Speed 13 mph    
Max Gust Speed 20 mph    
Visibility 10 miles    
Events      
Averages and records for this station are not official NWS values.
T = Trace of Precipitation, MM = Missing Value Source: NWS Daily Summary

Daily Weather History Graph

Daily Weather History Graph

Search for Another Location

Airport or City:

Astronomy

Jun. 11, 2019 Rise Set
Actual Time 5:50 AM EDT 9:08 PM EDT
Civil Twilight 5:15 AM EDT 9:43 PM EDT
Nautical Twilight 4:30 AM EDT 10:29 PM EDT
Astronomical Twilight 3:34 AM EDT 11:25 PM EDT
Moon 2:56 PM EDT (6/11) 2:44 AM EDT (6/11)
Length of Visible Light 16h 27m
Length of Day
15h 17m
Waxing Gibbous, 66% of the Moon is Illuminated
Jun 11
Waxing Gibbous
Jun 17
Full
Jun 25
Last Quarter
Jul 2
New
Jul 9
First Quarter

Hourly Weather History & Observations

Time (EDT) Temp. Dew Point Humidity Pressure Visibility Wind Dir Wind Speed Gust Speed Precip Events Conditions
12:16 AM 53.6 °F 42.8 °F 67% 30.09 in 10.0 mi Calm Calm - N/A   Clear
12:35 AM 53.6 °F 42.8 °F 67% 30.09 in 10.0 mi Calm Calm - N/A   Clear
12:36 AM 53.6 °F 42.8 °F 67% 30.09 in 10.0 mi Calm Calm - N/A   Clear
12:55 AM 51.8 °F 44.6 °F 76% 30.09 in 10.0 mi Calm Calm - N/A   Clear
12:56 AM 51.8 °F 44.6 °F 76% 30.09 in 10.0 mi Calm Calm - N/A   Clear
1:19 AM 51.8 °F 42.8 °F 71% 30.09 in 10.0 mi Calm Calm - N/A   Clear
1:37 AM 51.8 °F 42.8 °F 71% 30.09 in 10.0 mi Calm Calm - N/A   Clear
1:55 AM 50.0 °F 42.8 °F 76% 30.09 in 10.0 mi Calm Calm - N/A   Clear
1:56 AM 50.0 °F 42.8 °F 76% 30.09 in 10.0 mi Calm Calm - N/A   Clear
2:15 AM 50.0 °F 42.8 °F 76% 30.09 in 10.0 mi Calm Calm - N/A   Clear
2:16 AM 50.0 °F 42.8 °F 76% 30.09 in 10.0 mi Calm Calm - N/A   Clear
2:35 AM 48.2 °F 42.8 °F 82% 30.10 in 10.0 mi Calm Calm - N/A   Clear
2:58 AM 48.2 °F 42.8 °F 82% 30.10 in 10.0 mi Calm Calm - N/A   Clear
3:16 AM 48.2 °F 42.8 °F 82% 30.10 in 10.0 mi Calm Calm - N/A   Clear
3:35 AM 48.2 °F 42.8 °F 82% 30.10 in 10.0 mi Calm Calm - N/A   Clear
3:55 AM 48.2 °F 42.8 °F 82% 30.10 in 10.0 mi Calm Calm - N/A   Clear
3:56 AM 48.2 °F 42.8 °F 82% 30.10 in 10.0 mi Calm Calm - N/A   Clear
4:15 AM 46.4 °F 42.8 °F 87% 30.11 in 10.0 mi Calm Calm - N/A   Clear
4:39 AM 46.4 °F 41.0 °F 81% 30.11 in 10.0 mi Calm Calm - N/A   Clear
4:57 AM 46.4 °F 42.8 °F 87% 30.11 in 10.0 mi Calm Calm - N/A   Clear
5:15 AM 46.4 °F 41.0 °F 81% 30.11 in 10.0 mi Calm Calm - N/A   Clear
5:16 AM 46.4 °F 41.0 °F 81% 30.11 in 10.0 mi Calm Calm - N/A   Clear
5:35 AM 44.6 °F 41.0 °F 87% 30.12 in 7.0 mi Calm Calm - N/A   Clear
5:55 AM 44.6 °F 41.0 °F 87% 30.13 in 7.0 mi Calm Calm - N/A   Clear
6:18 AM 46.4 °F 42.8 °F 87% 30.14 in 10.0 mi Calm Calm - N/A   Mostly Cloudy
6:36 AM 48.2 °F 44.6 °F 87% 30.15 in 10.0 mi Calm Calm - N/A   Overcast
6:55 AM 50.0 °F 44.6 °F 82% 30.15 in 10.0 mi Calm Calm - N/A   Scattered Clouds
6:56 AM 50.0 °F 44.6 °F 82% 30.16 in 10.0 mi Calm Calm - N/A   Scattered Clouds
7:15 AM 51.8 °F 46.4 °F 82% 30.16 in 10.0 mi Calm Calm - N/A   Clear
7:16 AM 51.8 °F 46.4 °F 82% 30.16 in 10.0 mi Calm Calm - N/A   Clear
7:39 AM 53.6 °F 46.4 °F 77% 30.16 in 10.0 mi Calm Calm - N/A   Clear
7:57 AM 55.4 °F 46.4 °F 72% 30.17 in 10.0 mi WSW 3.5 mph - N/A   Clear
8:15 AM 57.2 °F 46.4 °F 67% 30.17 in 10.0 mi SW 3.5 mph - N/A   Clear
8:35 AM 60.8 °F 48.2 °F 63% 30.18 in 10.0 mi WSW 3.5 mph - N/A   Clear
8:55 AM 62.6 °F 46.4 °F 55% 30.18 in 10.0 mi Calm Calm - N/A   Clear
9:00 AM 62.6 °F 48.2 °F 59% 30.18 in 10.0 mi WSW 4.6 mph - N/A   Clear
9:18 AM 64.4 °F 48.2 °F 56% 30.18 in 10.0 mi Calm Calm - N/A   Clear
9:36 AM 66.2 °F 46.4 °F 49% 30.18 in 10.0 mi WSW 4.6 mph - N/A   Clear
9:55 AM 66.2 °F 44.6 °F 46% 30.17 in 10.0 mi WSW 5.8 mph - N/A   Clear
10:15 AM 68.0 °F 46.4 °F 46% 30.18 in 10.0 mi West 4.6 mph - N/A   Clear
10:16 AM 68.0 °F 46.4 °F 46% 30.18 in 10.0 mi West 5.8 mph - N/A   Clear
10:39 AM 68.0 °F 46.4 °F 46% 30.17 in 10.0 mi West 6.9 mph - N/A   Clear
10:57 AM 68.0 °F 46.4 °F 46% 30.17 in 10.0 mi West 5.8 mph - N/A   Clear
11:15 AM 68.0 °F 44.6 °F 43% 30.17 in 10.0 mi WNW 10.4 mph - N/A   Clear
11:16 AM 69.8 °F 44.6 °F 40% 30.17 in 10.0 mi WNW 11.5 mph - N/A   Clear
11:35 AM 69.8 °F 44.6 °F 40% 30.17 in 10.0 mi WNW 6.9 mph - N/A   Clear
11:36 AM 69.8 °F 44.6 °F 40% 30.17 in 10.0 mi WNW 8.1 mph - N/A   Clear
11:55 AM 69.8 °F 44.6 °F 40% 30.17 in 10.0 mi West 9.2 mph 16.1 mph N/A   Clear
12:18 PM 71.6 °F 42.8 °F 35% 30.17 in 10.0 mi West 9.2 mph - N/A   Clear
12:36 PM 71.6 °F 41.0 °F 33% 30.17 in 10.0 mi NW 12.7 mph 19.6 mph N/A   Clear
12:55 PM 71.6 °F 41.0 °F 33% 30.17 in 10.0 mi NNW 10.4 mph 16.1 mph N/A   Clear
12:56 PM 71.6 °F 41.0 °F 33% 30.17 in 10.0 mi NW 12.7 mph 16.1 mph N/A   Clear
1:15 PM 73.4 °F 39.2 °F 29% 30.16 in 10.0 mi NW 10.4 mph 18.4 mph N/A   Clear
1:39 PM 73.4 °F 39.2 °F 29% 30.16 in 10.0 mi WNW 10.4 mph 17.3 mph N/A   Scattered Clouds
1:57 PM 73.4 °F 39.2 °F 29% 30.16 in 10.0 mi NNW 11.5 mph 19.6 mph N/A   Clear
2:15 PM 75.2 °F 41.0 °F 29% 30.16 in 10.0 mi WNW 5.8 mph 19.6 mph N/A   Scattered Clouds
2:35 PM 73.4 °F 39.2 °F 29% 30.16 in 10.0 mi WNW 9.2 mph - N/A   Scattered Clouds
2:55 PM 75.2 °F 41.0 °F 29% 30.16 in 10.0 mi North - - N/A   Scattered Clouds
2:59 PM 73.4 °F 39.2 °F 29% 30.16 in 10.0 mi Calm Calm - N/A   Scattered Clouds
3:17 PM 75.2 °F 41.0 °F 29% 30.16 in 10.0 mi NW 5.8 mph - N/A   Mostly Cloudy
3:35 PM 75.2 °F 41.0 °F 29% 30.15 in 10.0 mi NW 9.2 mph - N/A   Scattered Clouds
3:55 PM 73.4 °F 41.0 °F 31% 30.15 in 10.0 mi North 9.2 mph - N/A   Mostly Cloudy
3:56 PM 75.2 °F 41.0 °F 29% 30.15 in 10.0 mi North 9.2 mph - N/A   Mostly Cloudy
4:15 PM 71.6 °F 42.8 °F 35% 30.15 in 10.0 mi NW 4.6 mph - N/A   Mostly Cloudy
4:20 PM 71.6 °F 41.0 °F 33% 30.15 in 10.0 mi NNW 5.8 mph - N/A   Mostly Cloudy
4:38 PM 71.6 °F 42.8 °F 35% 30.14 in 10.0 mi NNW 8.1 mph - N/A   Mostly Cloudy
4:56 PM 75.2 °F 41.0 °F 29% 30.14 in 10.0 mi North 6.9 mph - N/A   Scattered Clouds
5:15 PM 73.4 °F 42.8 °F 33% 30.14 in 10.0 mi NNE 4.6 mph - N/A   Scattered Clouds
5:16 PM 73.4 °F 42.8 °F 33% 30.14 in 10.0 mi NNE 5.8 mph - N/A   Scattered Clouds
5:35 PM 73.4 °F 41.0 °F 31% 30.13 in 10.0 mi NNE 6.9 mph - N/A   Scattered Clouds
5:36 PM 71.6 °F 41.0 °F 33% 30.13 in 10.0 mi NNE 6.9 mph - N/A   Scattered Clouds
5:59 PM 73.4 °F 41.0 °F 31% 30.13 in 10.0 mi NE 8.1 mph - N/A   Scattered Clouds
6:17 PM 73.4 °F 41.0 °F 31% 30.12 in 10.0 mi East 4.6 mph - N/A   Scattered Clouds
6:35 PM 73.4 °F 41.0 °F 31% 30.12 in 10.0 mi Calm Calm - N/A   Clear
6:55 PM 73.4 °F 41.0 °F 31% 30.12 in 10.0 mi NE 5.8 mph - N/A   Clear
6:56 PM 73.4 °F 41.0 °F 31% 30.12 in 10.0 mi NE 5.8 mph - N/A   Clear
7:15 PM 73.4 °F 41.0 °F 31% 30.11 in 10.0 mi ENE 5.8 mph - N/A   Clear
7:20 PM 73.4 °F 41.0 °F 31% 30.11 in 10.0 mi ENE 4.6 mph - N/A   Clear
7:38 PM 73.4 °F 41.0 °F 31% 30.11 in 10.0 mi ENE 4.6 mph - N/A   Clear
7:56 PM 71.6 °F 42.8 °F 35% 30.11 in 10.0 mi East 3.5 mph - N/A   Clear
8:15 PM 68.0 °F 48.2 °F 49% 30.11 in 10.0 mi Calm Calm - N/A   Clear
8:16 PM 68.0 °F 50.0 °F 52% 30.11 in 10.0 mi Calm Calm - N/A   Clear
8:35 PM 64.4 °F 48.2 °F 56% 30.11 in 10.0 mi Calm Calm - N/A   Clear
8:59 PM 62.6 °F 48.2 °F 59% 30.11 in 10.0 mi Calm Calm - N/A   Clear
9:17 PM 60.8 °F 48.2 °F 63% 30.11 in 10.0 mi Calm Calm - N/A   Clear
9:35 PM 59.0 °F 50.0 °F 72% 30.11 in 10.0 mi Calm Calm - N/A   Clear
9:36 PM 59.0 °F 50.0 °F 72% 30.11 in 10.0 mi Calm Calm - N/A   Clear
9:55 PM 59.0 °F 50.0 °F 72% 30.11 in 10.0 mi Calm Calm - N/A   Clear
9:56 PM 57.2 °F 50.0 °F 77% 30.11 in 10.0 mi Calm Calm - N/A   Clear
10:15 PM 57.2 °F 50.0 °F 77% 30.11 in 10.0 mi Calm Calm - N/A   Clear
10:55 PM 55.4 °F 50.0 °F 82% 30.12 in 10.0 mi Calm Calm - N/A   Clear
11:15 PM 59.0 °F 50.0 °F 72% 30.12 in 10.0 mi SSE 3.5 mph - N/A   Clear
11:35 PM 60.8 °F 46.4 °F 59% 30.12 in 10.0 mi SSE 3.5 mph - N/A   Clear
11:59 PM 57.2 °F 48.2 °F 72% 30.12 in 10.0 mi Calm Calm - N/A   Clear